C/2019 U6 ( Lemmon )

Japanese version
Home page
Updated on June 27, 2020

---------------------------------------------------------------------

* Profile

Discovery Date October 31, 2019
Magnitude 20.5 mag
Discoverer R. A. Kowalski (Mt. Lemmon Survey)

* Pictures

* Orbital Elements

Epoch 2020 May 31.0 TT = JDT 2459000.5
T 2020 June 18.82214 TT                                 Rudenko
q   0.9142396            (2000.0)            P               Q
z  +0.0023143      Peri.  329.66104     -0.68858485     +0.06105880
 +/-0.0000013      Node   235.70576     -0.35185738     -0.89942162
e   0.9978842      Incl.   61.00132     -0.63407199     +0.43279623
From 362 observations 2018 Nov. 6-2020 May 29, mean residual 0".7.

* Finding Charts

* Magnitudes Graph

        H = 14.0  G = 0.15                       [    ,-231]  (             - 2019 Oct. 31)
        m1 = 7.0 + 5 log d + 20.0 log r(t + 10)  [-231,    ]  (2019 Oct. 31 -             )

---------------------------------------------------------------------

The orbital elements are published on M.P.E.C. 2020-L06.
The charts are made with StellaNavigator Ver.10 (AstroArts).
The magnitudes graphs are made with Comet for Windows.

---------------------------------------------------------------------

Copyright(C) Seiichi Yoshida (comet@aerith.net). All rights reserved.